Regional Weather Roundup
Issued by NWS Sioux Falls, SD

Home | Current Version | Previous Version | Text Only | Print | Product List | Glossary On
Versions: 1 2 3 4 5 6 7 8 9 10 11 12 13 14 15 16 17 18 19 20 21 22 23 24 25 26 27 28 29 30 31 32 33 34 35 36 37 38 39 40 41 42 43 44 45 46 47 48 49 50
865
ASUS43 KFSD 171610
RWRFSD

WEATHER ROUNDUP FOR SE SOUTH DAKOTA/SW MINNESOTA/NW IOWA
NATIONAL WEATHER SERVICE SIOUX FALLS SD
1000 AM CST FRI NOV 17 2017

NOTE: "FAIR" INDICATES FEW OR NO CLOUDS BELOW 12,000 FEET WITH NO
SIGNIFICANT WEATHER AND OR OBSTRUCTIONS TO VISIBILITY.


SDZ038>040-050-052>070-171700-
SOUTHEAST SOUTH DAKOTA

CITY           SKY/WX    TMP DP  RH WIND       PRES   REMARKS
BROOKINGS      CLOUDY    39  34  82 W6        29.59F
CHAMBERLAIN    LGT RAIN  42  35  75 N9        29.66R
HURON          LGT RAIN  37  31  78 NE9       29.63R
MADISON        FAIR      37  37 100 E6        29.57F
MITCHELL       CLOUDY    38  32  79 N17       29.62R
SIOUX FALLS    PTSUNNY   48  42  80 SW3       29.58S
WINNER         CLOUDY    41  33  73 NW13      29.67R
YANKTON        MOSUNNY   46  35  65 SW7       29.57F
$$

MNZ071-072-080-081-089-090-097-098-171700-
SOUTHWEST MINNESOTA

CITY           SKY/WX    TMP DP  RH WIND       PRES   REMARKS
FAIRMONT       CLOUDY    40  35  83 S21       29.62F
JACKSON        CLOUDY    41  34  75 S12       29.61F
LUVERNE        MOSUNNY   48  37  66 SW12      29.59S
MARSHALL       CLOUDY    40  34  79 VRB3      29.61S
MONTEVIDEO     CLOUDY    37  34  87 CALM      29.61R
PIPESTONE      CLOUDY    45  37  76 SW7       29.58S
REDWOOD FALLS  CLOUDY    40  32  73 SE6       29.62R
WINDOM           N/A     43  28  56 S8        29.60S
WORTHINGTON    CLOUDY    44  38  79 SE8       29.59S
$$

IAZ001>003-012>014-020>022-031-032-NEZ013-014-SDZ071-171700-
NORTHWEST IOWA

CITY           SKY/WX    TMP DP  RH WIND       PRES   REMARKS
CHEROKEE       PTSUNNY   52  46  79 S17       29.59F
DENISON        CLOUDY    50  46  87 S18G24    29.63F
ESTHERVILLE    CLOUDY    41  36  82 S20       29.61F
LE MARS        CLOUDY    54  45  71 S15       29.58S
ORANGE CITY    CLOUDY    54  48  82 S15       29.57F
SHELDON        CLOUDY    50  43  76 S12G20    29.57S
SIOUX CITY     PTSUNNY   52  43  71 S10       29.59F
SPENCER        CLOUDY    46  38  73 S18       29.59F
STORM LAKE     CLOUDY    46  41  81 S15       29.61F
$$

ABBREVIATIONS USED IN REMARKS
   TC - TEMPERATURE IN CELSIUS
  WCI - WIND CHILL INDEX
   HX - HEAT INDEX
  VSB - VISIBILITY





USA.gov is the U.S. government's official web portal to all federal, state and local government web resources and services.